Simultaneous Nadir Overpasses (SNOs) Predictions

Prediction of SNOs between LANDSAT-8 and NOAA-19 Satellite Orbit:

Table of predicted SNOs for the next 14.0 days since TLE Epoch: 9/5/2014
Index Date (LANDSAT-8) Time (LANDSAT-8) Lat,Lon (LANDSAT-8) SZA (LANDSAT-8 ) Date (NOAA-19) Time (NOAA-19) Lat,Lon (NOAA-19) SZA (NOAA-19 ) Distance(km) Time Diff (sec)
1 09/07/2014 04:04:51 -72.22, -61.50 113.99 09/07/2014 04:04:01 -72.25, -61.49 113.96 2.96 50
2 09/07/2014 04:54:18 72.13, 105.98 65.93 09/07/2014 04:55:02 72.13, 106.00 65.93 0.93 44
3 09/09/2014 08:49:05 -72.44,-132.18 112.95 09/09/2014 08:47:53 -72.55,-133.02 112.84 30.52 72
4 09/09/2014 09:38:35 72.19, 35.00 66.81 09/09/2014 09:38:50 72.20, 34.94 66.83 2.50 15
5 09/11/2014 14:22:52 72.23, -35.99 67.69 09/11/2014 14:22:37 72.22, -36.02 67.68 1.68 15
6 09/11/2014 15:12:22 -72.12, 131.44 112.41 09/11/2014 15:13:34 -72.12, 131.42 112.41 0.87 72
7 09/13/2014 19:07:09 72.27,-107.00 68.57 09/13/2014 19:06:24 72.24,-106.99 68.55 2.25 45
8 09/13/2014 19:56:39 -72.15, 60.43 111.54 09/13/2014 19:57:21 -72.17, 60.41 111.51 2.45 42
9 09/15/2014 23:51:25 72.34,-177.93 69.49 09/15/2014 23:50:13 72.37,-178.17 69.52 8.88 72
10 09/16/2014 00:40:56 -72.18, -10.59 110.67 09/16/2014 00:41:07 -72.18, -10.51 110.67 2.77 11
11 09/18/2014 05:25:12 -72.25, -81.54 109.74 09/18/2014 05:24:54 -72.23, -81.53 109.76 2.34 18




NCC Satellite Simultaneous Nadir Overpasses (SNOs) Prediction Service
